Address 0x4f8ea2a425ff982543f6ecb6d030f33b7148be17

 
Ad
Ad
Txn Hash
Block
From
To
Value [Txn Fee]
0x049b552e1998dac9d68df21ad2fe0fd728258d3a1c93292466d00b3482ce14e865189502021-04-13 3:35:001 day 20 hrs ago0x4f8ea2a425ff982543f6ecb6d030f33b7148be17OUT PancakeSwap: Main Staking Contract0 BNB0.000556645
0xef0e88b0934f7a0a964b13e6b4b90098415988746698798ae954c5eca279b63b65176652021-04-13 2:30:451 day 21 hrs ago0x4f8ea2a425ff982543f6ecb6d030f33b7148be17OUT PancakeSwap: Main Staking Contract0 BNB0.000641355
0x7bf212bf76a3f7d302b2780c1ce4996a77073d23c2c043dc3f8173d09f67785765175642021-04-13 2:25:421 day 21 hrs ago0x4f8ea2a425ff982543f6ecb6d030f33b7148be17OUT PancakeSwap: Router0.17468045903628 BNB0.000875275
0x738345d5f06c7da135b084b5f73d5091f4137685024956725d6dacf35c30b42c65174872021-04-13 2:21:511 day 21 hrs ago0x4f8ea2a425ff982543f6ecb6d030f33b7148be17OUT PancakeSwap: CAKE Token0 BNB0.00022215
0xddb34bc5fab82264f1e90f4a5d6bd49a64e5eb4c0fa93a7abe40dd21d5c7670665174492021-04-13 2:19:571 day 21 hrs ago0x4f8ea2a425ff982543f6ecb6d030f33b7148be17OUT PancakeSwap: Cake0 BNB0.000125655
0x9e989015e28cef06663cc6ec2a958b52cf02f5abd3b4a2e3199e890fd95d76cf65173052021-04-13 2:12:451 day 21 hrs ago0x4f8ea2a425ff982543f6ecb6d030f33b7148be17OUT PancakeSwap: Cake0 BNB0.000221655
0x2dec3246a0ab829a3acd7e590a38ac1b360c07032385f7078b8a696bc2e3f65265172672021-04-13 2:10:511 day 21 hrs ago0x4f8ea2a425ff982543f6ecb6d030f33b7148be17OUT 0x9bbdc92474a7e7321b78dcda5ef35f49814387600 BNB0.00036987
0x769da6cec1c63633c45a84a42fcc3cda2801436ad656a873370afa003bb6c20765139162021-04-12 23:23:162 days 14 mins ago0x4f8ea2a425ff982543f6ecb6d030f33b7148be17OUT 0xdef1c0ded9bec7f1a1670819833240f027b25eff0.2 BNB0.000998455
0xf48ef648084a3a4847447d8cddd3320b3661a1f1853a4de4b8feb3c9149dc94565137772021-04-12 23:16:192 days 21 mins ago0x4f8ea2a425ff982543f6ecb6d030f33b7148be17OUT PancakeSwap: Router0 BNB0.00095376
0x188bf848828ed85955521380946a67cc76f3ffa47a856407b9fcba355a722a7c65137572021-04-12 23:15:192 days 22 mins ago0x4f8ea2a425ff982543f6ecb6d030f33b7148be17OUT 0x5bd1b218ab8717346e91cd7ec1a9d607a63a60740 BNB0.00022215
0xb94f0150ee6a4622dc244f6731e3e03be73fc54006aece34474381a2df5cbe6265127922021-04-12 22:27:042 days 1 hr ago0x4f8ea2a425ff982543f6ecb6d030f33b7148be17OUT PancakeSwap: Router0.3 BNB0.00089169
0xbd90509e5eecff230ea6174baf066cf3bf05a4f6f74b7aced9f1b3005eb1e95665127632021-04-12 22:25:372 days 1 hr agoBinance: Hot Wallet IN 0x4f8ea2a425ff982543f6ecb6d030f33b7148be170.9995 BNB0.000126
0x5bbfa7cb2b85936584d649141735cb15088cd02049eb053bb7658287774e05de64923092021-04-12 5:20:242 days 18 hrs ago0x4f8ea2a425ff982543f6ecb6d030f33b7148be17OUT0xf69cd32ca26a0449ba7537103b675a759cd4ef441.348513616996794 BNB0.000105
0x3f49d2854b7ce4b339310171ad98538921983410437d4143b1a1765f139bf7ae64922492021-04-12 5:17:242 days 18 hrs ago0x4f8ea2a425ff982543f6ecb6d030f33b7148be17OUT PancakeSwap: Router0 BNB0.00148784
0xc0ff55063f72c110e1bd2c25340dbbc9062b4436d8f9f23c6b6d55fd626de56e64922342021-04-12 5:16:392 days 18 hrs ago0x4f8ea2a425ff982543f6ecb6d030f33b7148be17OUT PancakeSwap: Router0 BNB0.00128361
0xa5c318471d256e54cb0aae416df3a33a23af8249a7092e8f9cc9477b7e379d1b64922342021-04-12 5:16:392 days 18 hrs ago0x4f8ea2a425ff982543f6ecb6d030f33b7148be17OUT PancakeSwap: Router0 BNB0.000118485
0x20bab1164a43cbeb71dd2f2291f6c1cb035cfaeade997b7bba03f86cf81fbc4764922062021-04-12 5:15:152 days 18 hrs agoBinance: Hot Wallet IN 0x4f8ea2a425ff982543f6ecb6d030f33b7148be171 BNB0.000126
0x3f34567f35beae8617357fc3919865d1e7ab481b49e4e5e1c657aa023c03c66d64724202021-04-11 12:45:183 days 10 hrs ago0x4f8ea2a425ff982543f6ecb6d030f33b7148be17OUT0xf69cd32ca26a0449ba7537103b675a759cd4ef443.999939666365406 BNB0.000105
0x8269d4fff92b8f37af2d9639d7351c5b15c550118192579a412ac87abfb888d464722812021-04-11 12:38:213 days 10 hrs agoBinance: Hot Wallet 2 IN 0x4f8ea2a425ff982543f6ecb6d030f33b7148be173.9995 BNB0.000126
0x6ef6a702899eb5722a99cd9ca62f78638fea5f1da44c0f0938b8fd1ba0e7be2664066382021-04-09 5:45:035 days 17 hrs ago0x4f8ea2a425ff982543f6ecb6d030f33b7148be17OUT ElonGate: ElonGate Token0 BNB0.00022274
0x8b13428090f66c3e27f59f5704cf83444986f083c6815a735bcc575ed0a56a6164059212021-04-09 5:09:125 days 18 hrs ago0x4f8ea2a425ff982543f6ecb6d030f33b7148be17OUT PancakeSwap: Router0.001191166041679 BNB0.001125505
0xe61336c8ab4bf211563d969f6208812014825159345ab913f9cd36fcc51b234664050352021-04-09 4:24:545 days 19 hrs ago0x4f8ea2a425ff982543f6ecb6d030f33b7148be17OUT Tokocrypto: TKO Token0 BNB0.00022215
0x563d33fbd6f65f61b0780f5b9189abffe1c050a63271ff5ecf2e512fda5cc08063947602021-04-08 19:43:366 days 3 hrs ago0x4f8ea2a425ff982543f6ecb6d030f33b7148be17OUT PancakeSwap: Main Staking Contract0 BNB0.00084426
0xc08c232bb04272f407cece3b088af0c7b1d96df8f299fca5d006228befdc5e8863944242021-04-08 19:26:486 days 4 hrs ago0x4f8ea2a425ff982543f6ecb6d030f33b7148be17OUT 0x9bbdc92474a7e7321b78dcda5ef35f49814387600 BNB0.00044487
0xecd23976afd5506dc388e8cd9e77b2b43a4a94bff70a9d1b9e90bd332a855f2363942302021-04-08 19:17:066 days 4 hrs ago0x4f8ea2a425ff982543f6ecb6d030f33b7148be17OUT 0xdf4dbf6536201370f95e06a0f8a7a70fe40e388a0 BNB0.00123623
[ Download CSV Export 
Latest 5 internal transactions
Parent Txn Hash Block From To Value
0xf48ef648084a3a4847447d8cddd3320b3661a1f1853a4de4b8feb3c9149dc94565137772021-04-12 23:16:192 days 21 mins ago PancakeSwap: Router0x4f8ea2a425ff982543f6ecb6d030f33b7148be170.097755485390102864 BNB
0x3f49d2854b7ce4b339310171ad98538921983410437d4143b1a1765f139bf7ae64922492021-04-12 5:17:242 days 18 hrs ago PancakeSwap: Router0x4f8ea2a425ff982543f6ecb6d030f33b7148be170.000000390418607989 BNB
0xc0ff55063f72c110e1bd2c25340dbbc9062b4436d8f9f23c6b6d55fd626de56e64922342021-04-12 5:16:392 days 18 hrs ago PancakeSwap: Router0x4f8ea2a425ff982543f6ecb6d030f33b7148be170.35150816157818651 BNB
0x8b13428090f66c3e27f59f5704cf83444986f083c6815a735bcc575ed0a56a6164059212021-04-09 5:09:125 days 18 hrs ago PancakeSwap: Router0x4f8ea2a425ff982543f6ecb6d030f33b7148be170.000012577407085957 BNB
0x91fce95dd8492d2a0df75aa5baf0560d7b59d5c7edb93f4bd8b3d2384b9bb75e63780482021-04-08 4:52:086 days 18 hrs ago PancakeSwap: Router0x4f8ea2a425ff982543f6ecb6d030f33b7148be170.001126598392901733 BNB
[ Download CSV Export 
Loading

Contract Name:
0 BNB

Compiler Version
0

Optimization Enabled:
0 BNB

Other Settings:
-NA-
Block Transaction Gas Used Reward
Age Block Fee Address BC Fee Address Voting Power Jailed Incoming
Block Uncle Number Difficulty Gas Used Reward
Loading
Loading
Make sure to use the "Vote Down" button for any spammy posts, and the "Vote Up" for interesting conversations.